Regional Weather Roundup
Issued by NWS Albany, NY

Home | Current Version | Previous Version | Text Only | Print | Product List | Glossary On
Versions: 1 2 3 4 5 6 7 8 9 10 11 12 13 14 15 16 17 18 19 20 21 22 23 24 25 26 27 28 29 30 31 32 33 34 35 36 37 38 39 40 41 42 43 44 45 46 47 48 49 50
000
ASUS41 KALY 211910
RWRALY

NEW YORK STATE HOURLY WEATHER ROUNDUP
NATIONAL WEATHER SERVICE ALBANY NY
300 PM EDT THU AUG 21 2014

NOTE: "FAIR" INDICATES FEW OR NO CLOUDS BELOW 12,000 FEET WITH NO
SIGNIFICANT WEATHER AND/OR NO OBSTRUCTIONS TO VISIBILITY.

NYZ032-033-038>043-046>054-057>066-NYZ062>081-212000-
EAST


CITY           SKY/WX    TMP DP  RH WIND       PRES   REMARKS
ALBANY         CLOUDY    76  64  66 S8        30.00F
GLENS FALLS    CLOUDY    70  66  87 CALM      30.02S
POUGHKEEPSIE   PTSUNNY   79  64  60 SE5       30.01F
NEWBURGH       PTSUNNY   79  61  53 W9        30.04S
MONTGOMERY     PTSUNNY   81  62  52 SE5       30.01F
WHITE PLAINS   PTSUNNY   77  62  59 S9        30.04F
ISLIP          MOSUNNY   76  62  62 SE9       30.04F
NEW YORK CITY  PTSUNNY   80  59  48 S13       30.03F
CENTRAL PARK   PTSUNNY   78  61  55 VRB6      30.06S
$$

NYZ005>009-017-018-044>046-055-056-212000-
CENTRAL


CITY           SKY/WX    TMP DP  RH WIND       PRES   REMARKS
FULTON         CLOUDY    79  69  71 VRB3      29.95F
SYRACUSE       TSTM      71  68  90 E10       29.94F FOG
ROME           PTSUNNY   79  70  74 E3        29.97F
ELMIRA         PTSUNNY   85  66  53 W9        29.95S
BINGHAMTON     PTSUNNY   78  66  66 S9        30.00F THUNDER
MONTICELLO     PTSUNNY   70  70 100 E6        30.05F
$$

NYZ026>034-041>043-212000-
NORTH


CITY           SKY/WX    TMP DP  RH WIND       PRES   REMARKS
WATERTOWN      PTSUNNY   77  66  68 W7        29.95S
FORT DRUM      NOT AVBL
MASSENA        MOSUNNY   75  70  84 NE10      29.97R
SARANAC LAKE   CLOUDY    71  65  81 SW3       29.99F
PLATTSBURGH    CLOUDY    70  65  84 SE12      30.01F
$$

NYZ001>004-010>016-019>021-212000-
WEST


CITY           SKY/WX    TMP DP  RH WIND       PRES   REMARKS
NIAGARA FALLS  PTSUNNY   79  65  62 SW14      29.94F
BUFFALO        MOSUNNY   78  63  59 W22G29    29.96S
DUNKIRK        SUNNY     76  67  73 W10G20    29.98F
JAMESTOWN      CLOUDY    75  64  69 W12       30.02S
WELLSVILLE     MOSUNNY   80  61  52 W10G20    30.03F
ROCHESTER      PTSUNNY   79  68  69 VRB6      29.94S
PENN YAN       TSTM      71  67  87 NE5       29.97S
$$

             KEY
       WCI = WIND CHILL INDEX
       VSB = VISIBILITY
       HX  = HEAT INDEX
$$


USA.gov is the U.S. government's official web portal to all federal, state and local government web resources and services.